Temperature
7 8 8 10 11 12 13 13 13 13 13 14 14 15 15 15 15 16 16 16 16 16 15 16 16 16 16 16 16 16 16 16 16 15 15 15 15 15 15 14 14 14 14 14
7 7 9 9 10 11 11 12 12 13 13 13 14 14 15 15 15 15 16 16 16 16 15 15 16 16 16 16 16 16 16 16 16 16 15 15 15 15 15 15 14 14 14 14
7 8 8 9 9 10 11 12 12 12 12 13 13 13 14 15 15 15 15 15 16 15 15 15 15 16 16 16 16 16 16 16 16 16 15 15 15 15 15 15 14 14 14 14
7 8 8 9 9 10 10 12 12 12 12 12 13 13 15 15 15 15 15 15 15 15 15 15 15 16 16 16 16 16 16 16 16 15 15 15 15 15 15 14 14 14 14 14
7 8 8 8 9 10 10 11 12 12 12 12 12 13 15 15 15 16 16 16 15 15 15 15 15 16 16 16 16 16 15 15 15 15 15 15 14 14 14 14 14 13 13 13
7 8 8 9 9 10 10 11 11 11 12 11 13 13 14 15 15 16 16 16 15 15 14 15 15 15 15 15 15 15 15 15 15 15 14 14 14 14 13 13 13 13 12 12
7 7 8 8 9 9 10 10 10 10 10 11 12 12 14 15 15 15 16 15 14 14 14 14 14 15 15 15 14 14 14 14 14 14 13 13 13 13 13 12 12 12 11 11
7 7 8 8 9 9 10 11 11 11 11 12 11 12 14 15 13 12 12 12 12 12 12 13 13 14 14 14 13 13 13 13 13 13 12 12 12 12 12 11 11 11 11 10
8 8 8 8 8 10 9 10 10 10 11 11 12 12 13 14 13 13 12 12 11 11 11 11 11 12 12 12 12 12 12 12 12 12 11 11 11 11 11 10 10 10 10 9
8 7 7 8 8 8 10 10 9 9 10 11 12 12 14 14 14 14 13 12 11 10 10 10 10 10 11 11 11 11 11 11 11 11 10 10 10 10 10 9 9 9 9 8
8 8 7 7 8 8 8 9 9 10 10 11 12 13 14 13 13 13 13 11 10 9 9 9 9 9 10 10 10 10 10 10 10 10 10 9 9 9 9 8 8 8 8 7
8 8 7 7 8 8 9 9 9 9 9 10 12 13 13 12 12 11 11 10 9 9 9 8 8 9 9 9 9 10 9 9 9 9 9 9 8 8 8 7 7 7 7 7
8 8 7 7 7 7 8 8 9 9 9 9 10 13 12 11 11 10 10 10 9 9 8 8 8 9 9 9 9 9 9 9 9 8 8 8 8 7 7 6 6 6 6 6
8 8 8 9 9 8 7 8 8 8 8 9 10 12 13 12 12 12 11 10 9 9 8 8 9 9 9 9 9 9 9 8 8 8 7 7 7 6 6 6 5 5 5 5
7 7 7 8 8 8 8 8 8 7 9 9 11 11 12 13 13 12 11 10 9 9 8 9 9 9 9 9 9 9 8 8 8 7 7 6 6 5 5 5 5 4 4 4
7 7 7 7 7 7 7 8 8 8 9 9 9 10 12 11 11 10 10 10 9 9 9 9 9 9 9 9 9 9 8 8 7 7 6 6 5 5 4 4 4 4 3 3
7 7 7 8 7 7 7 8 8 8 9 9 9 11 11 11 10 10 10 9 9 9 9 9 9 10 10 9 9 9 8 7 7 6 5 5 4 4 3 3 3 2 2 2
7 7 7 7 7 7 9 8 8 8 9 9 9 10 10 10 9 9 8 9 9 9 9 9 9 10 10 9 9 8 8 7 6 6 5 4 3 3 3 2 2 2 2 1
7 7 7 7 7 8 9 8 8 8 9 9 9 9 9 8 7 9 8 8 8 9 9 9 9 9 9 9 9 8 7 7 6 5 4 4 3 2 2 2 1 1 1 1
6 6 7 7 7 7 9 8 7 8 9 9 8 8 8 7 9 10 8 8 8 9 9 9 9 9 9 9 8 8 7 6 6 5 4 3 2 2 1 1 1 1 1 0
6 6 6 7 7 8 9 7 7 8 9 8 7 7 7 7 8 7 7 8 8 8 8 9 9 9 8 8 8 7 6 6 5 4 3 2 2 1 1 1 1 0 0 0
6 6 6 7 6 7 7 7 8 8 7 7 6 6 6 6 6 7 7 7 7 8 8 8 8 8 8 7 7 6 6 5 4 3 2 2 1 1 1 1 0 0 -0 -0
6 6 7 7 7 7 6 6 6 6 6 6 6 6 6 6 6 7 7 7 7 7 7 7 7 7 7 6 6 5 5 4 3 2 2 1 1 1 1 0 0 -0 -0 -0
5 4 5 5 6 6 6 5 5 5 5 6 6 6 6 6 6 6 7 7 6 6 6 6 6 6 6 5 5 4 3 3 2 2 1 1 0 0 0 0 -0 -0 -0 -0
4 4 4 5 6 6 6 5 5 5 5 5 6 6 6 6 6 6 6 6 6 6 6 6 5 5 5 4 4 3 3 2 2 1 1 1 1 0 0 0 0 -0 -0 -0
3 4 4 5 5 4 4 4 4 4 4 5 5 5 5 5 6 6 6 6 6 5 5 5 5 4 4 4 4 3 3 2 2 1 1 1 0 0 0 -0 -0 -0 -0 -0
Wind_Speed
3 5 9 13 11 7 12 14 14 12 9 13 17 17 13 9 10 14 15 13 12 11 7 6 6 6 7 8 9 10 10 9 8 7 7 6 6 6 5 5 6 6 7 7
5 6 6 6 6 7 11 13 13 8 7 10 13 16 14 12 13 15 16 16 14 12 10 7 6 7 8 8 9 9 9 8 8 7 6 4 4 4 4 3 4 4 5 6
5 3 5 8 9 10 11 13 12 10 8 7 8 12 16 15 15 15 16 17 16 14 13 11 9 8 8 8 8 7 7 7 7 7 5 4 3 3 4 4 3 2 3 4
3 3 7 9 10 10 8 9 9 10 11 7 9 9 14 16 16 18 19 18 18 15 14 12 10 10 9 7 6 6 6 5 5 6 6 7 6 6 4 3 2 1 1 2
4 6 9 9 8 8 5 7 8 9 9 6 9 8 8 10 17 20 21 20 18 16 14 13 11 10 9 8 7 6 6 5 4 4 5 5 5 4 3 2 2 2 0 1
2 2 4 5 4 5 6 9 7 5 5 9 12 11 8 9 14 16 18 19 18 15 13 12 10 9 9 8 7 7 7 6 5 4 4 4 5 4 4 3 3 2 1 0
3 2 2 3 7 6 8 10 6 6 7 8 7 9 9 7 9 11 12 13 13 12 12 12 12 12 11 11 9 8 8 7 6 5 4 4 3 3 3 3 2 2 1 0
5 5 5 5 6 8 11 9 6 6 8 5 6 9 8 5 5 7 8 8 8 10 11 12 13 13 12 12 11 9 9 7 6 5 5 4 3 2 2 1 1 1 0 1
5 3 3 3 2 6 9 6 1 0 1 4 6 6 7 6 6 5 6 6 7 8 9 10 12 12 13 12 11 10 9 7 6 5 5 4 3 3 3 2 2 1 1 1
2 4 4 4 4 1 3 6 4 4 5 6 6 7 5 3 3 3 3 4 5 5 7 9 11 12 11 11 10 9 8 7 6 5 4 3 3 3 3 2 2 2 1 1
2 4 5 5 7 9 7 6 5 4 4 4 4 3 2 2 2 4 5 4 4 5 7 9 11 11 11 10 9 9 8 7 6 5 5 4 4 3 3 2 2 2 2 2
3 3 4 4 1 4 7 8 9 6 5 4 4 2 2 3 3 4 4 3 2 4 7 9 11 11 11 10 10 9 8 7 6 6 5 5 4 3 3 3 2 2 2 2
5 4 5 4 4 5 6 8 10 6 3 6 6 5 3 2 3 3 3 2 2 6 8 10 11 11 11 11 10 9 8 7 7 6 6 5 5 4 3 3 3 3 3 3
3 3 5 5 2 6 7 10 11 9 7 9 12 12 8 7 7 6 5 4 5 7 9 11 11 11 11 11 10 10 9 8 8 7 6 6 5 5 4 4 3 3 3 4
2 3 3 4 2 4 7 10 14 15 14 11 12 15 15 13 12 11 9 7 7 8 10 12 13 12 12 11 11 10 10 9 9 8 7 6 6 5 5 5 4 4 4 4
2 2 2 3 4 6 8 11 15 16 16 18 19 19 14 13 12 12 11 10 10 11 12 13 13 13 13 13 12 11 11 10 9 9 8 7 7 6 6 5 5 5 5 5
2 3 3 3 2 3 8 11 15 12 13 13 17 16 12 12 12 13 11 11 12 12 12 13 14 14 14 14 13 13 12 11 10 9 8 8 8 7 7 6 6 6 5 5
4 3 2 2 3 6 2 1 6 11 13 14 15 14 13 13 13 12 12 12 12 11 11 12 12 13 12 12 12 11 11 11 11 10 9 9 8 8 7 7 7 6 5 5
7 5 3 3 4 6 3 2 4 6 5 6 10 12 11 9 8 8 7 9 10 10 9 9 9 10 10 12 12 12 12 12 11 11 10 10 9 9 8 8 7 6 6 5
4 5 4 4 3 3 0 1 2 3 3 1 3 6 7 4 4 4 5 5 5 4 4 4 5 7 9 11 12 13 12 12 12 11 10 10 9 9 9 8 7 6 6 6
3 4 6 7 6 5 3 0 3 3 1 4 4 6 6 4 5 6 6 4 2 1 1 3 5 6 8 10 12 12 11 12 10 9 9 9 9 9 8 8 7 7 7 6
4 4 5 5 6 4 2 3 2 3 4 5 6 6 6 6 6 5 4 2 2 2 2 3 4 5 6 9 10 10 10 8 9 9 9 9 9 8 8 8 8 8 8 7
3 3 2 4 3 2 1 2 3 4 5 6 6 6 6 5 4 3 2 1 1 1 2 2 4 5 5 7 8 9 7 8 9 9 9 9 9 8 8 9 9 8 8 7
2 2 3 5 5 6 6 5 6 6 7 8 7 7 5 5 4 3 1 0 1 1 2 2 4 4 5 6 7 6 7 9 10 10 9 9 9 9 8 8 8 8 8 8
4 3 4 6 7 7 4 5 8 8 7 7 6 5 5 4 4 3 2 1 1 1 2 3 3 4 4 5 6 6 7 9 10 10 9 9 9 9 8 8 8 9 9 9
3 4 4 5 5 6 9 10 11 10 9 7 6 5 4 3 3 2 2 1 1 1 2 2 3 4 4 5 6 6 8 9 10 9 9 8 8 8 8 8 7 10 10 12
Wind_Direction
148 184 192 187 197 209 187 192 195 197 187 203 218 229 233 232 226 231 232 234 233 233 219 204 196 191 192 194 196 198 197 198 196 195 201 209 217 219 220 224 234 238 242 242
148 201 199 185 186 185 183 189 189 183 186 208 224 235 237 235 231 231 231 231 231 227 216 206 196 190 193 192 192 192 194 194 195 197 197 206 209 216 219 216 229 242 247 248
171 172 179 181 184 185 193 194 186 176 170 204 221 236 232 232 232 234 234 233 232 228 225 213 200 193 188 188 186 184 184 185 189 189 182 176 185 197 203 211 219 245 259 259
179 187 176 180 188 188 190 195 184 176 181 196 208 236 226 223 225 228 230 229 229 227 226 219 207 197 189 180 171 170 167 170 175 183 194 201 208 216 215 210 204 209 271 283
179 180 180 187 192 186 171 170 179 190 201 210 211 238 242 214 227 227 226 226 227 225 224 218 208 196 181 168 162 157 150 148 152 169 186 200 208 210 191 187 195 202 139 14
166 175 195 191 181 180 149 147 144 176 204 229 217 225 252 223 230 230 227 226 226 224 221 218 204 185 173 165 159 155 147 137 135 141 155 177 186 187 188 196 201 205 203 19
162 171 182 177 157 168 183 166 164 185 206 227 192 222 248 249 242 243 241 234 230 230 222 211 197 186 177 170 164 160 152 142 135 130 128 136 153 171 188 195 203 216 230 293
171 177 186 184 185 181 194 197 203 197 202 195 188 230 247 263 268 263 258 253 245 237 225 212 200 188 179 171 166 162 156 146 139 134 126 123 131 143 149 161 179 199 260 349
181 164 151 173 185 180 180 201 256 9 164 210 212 239 270 253 251 249 251 251 244 234 220 206 193 184 176 170 167 163 156 148 144 139 134 129 126 128 132 132 132 121 68 27
182 152 160 160 169 182 208 167 167 193 194 219 222 233 234 199 226 263 272 269 255 229 206 191 183 177 171 164 159 158 156 152 147 145 140 132 126 122 127 129 120 108 85 64
179 155 153 171 198 189 171 179 193 199 242 233 227 209 185 223 293 296 297 292 264 220 194 180 173 169 163 158 158 158 158 155 153 151 146 141 132 125 126 123 116 110 97 83
186 179 170 186 192 229 214 205 193 202 208 228 250 230 137 238 289 292 296 297 240 194 183 176 169 166 166 166 166 166 166 165 160 156 153 146 139 139 138 130 120 115 106 91
168 177 161 172 197 199 215 214 212 217 218 218 230 237 140 228 264 281 278 262 201 181 177 176 175 176 176 175 175 174 173 168 163 162 160 156 155 154 148 137 128 121 112 102
179 205 226 216 180 176 197 207 207 204 218 233 237 248 241 250 265 281 280 258 229 202 192 188 188 188 186 183 181 180 177 172 168 168 168 168 165 160 153 145 138 130 123 115
201 221 229 257 242 197 213 211 208 216 228 240 251 252 256 266 277 283 279 260 234 218 208 202 199 196 192 189 187 184 180 176 173 173 175 173 165 161 157 151 144 134 125 118
221 235 221 242 230 226 239 232 224 227 234 243 257 264 268 275 276 273 266 254 242 229 219 212 208 203 199 196 191 186 183 179 176 178 178 171 167 167 165 158 149 140 132 125
221 217 218 242 219 234 249 235 224 223 226 235 250 262 278 275 271 269 267 256 247 239 228 219 214 210 206 200 192 189 183 176 179 181 177 174 173 172 169 162 156 151 144 135
224 217 236 239 209 238 252 162 224 230 243 241 254 270 280 283 288 283 272 262 255 245 234 225 218 212 205 195 188 182 175 176 180 181 181 179 178 175 170 167 164 157 150 144
224 220 223 231 246 269 280 223 201 217 255 247 253 271 286 298 292 276 271 260 257 255 243 232 218 207 193 185 178 173 175 178 182 186 185 183 180 176 174 175 171 163 158 154
203 222 229 228 246 253 331 60 174 207 246 5 274 291 306 305 287 322 349 313 282 266 245 217 192 180 177 174 170 173 178 182 189 189 186 182 181 180 179 176 170 167 165 162
181 205 223 233 246 268 313 301 169 227 359 356 315 304 300 276 286 317 329 336 342 1 105 153 160 165 169 165 169 178 182 190 188 181 180 180 182 181 177 170 170 168 168 166
221 218 217 219 227 249 57 141 199 324 338 316 310 308 298 290 295 305 320 345 29 65 93 128 144 145 153 165 173 180 188 183 174 173 177 179 178 174 171 170 171 174 175 179
242 256 270 244 251 353 328 245 306 317 301 306 307 307 301 296 295 301 314 346 48 84 110 125 142 144 157 174 181 185 181 169 170 174 179 179 177 176 174 177 177 178 186 195
279 284 265 273 278 296 297 295 306 305 295 298 298 298 290 283 281 275 269 257 142 133 148 152 160 168 177 185 192 191 174 172 175 180 183 182 181 181 182 186 188 190 195 201
283 281 268 270 293 308 310 331 329 321 315 310 309 301 289 277 270 264 255 236 205 180 176 182 193 199 197 189 193 188 178 177 182 186 187 187 189 188 190 197 201 203 209 209
244 253 271 284 321 309 305 317 320 315 313 312 307 304 312 296 277 273 257 244 217 208 199 204 215 220 214 202 199 192 186 186 187 190 192 193 194 194 196 200 210 220 221 222
Height
1502 1504 1501 1499 1500 1498 1499 1501 1504 1505 1509 1512 1511 1511 1513 1515 1516 1516 1518 1520 1522 1524 1525 1527 1529 1531 1534 1537 1539 1541 1544 1546 1548 1550 1551 1552 1554 1555 1555 1556 1557 1557 1558 1558
1504 1503 1501 1502 1503 1502 1502 1503 1504 1508 1510 1510 1510 1510 1510 1512 1512 1513 1514 1516 1517 1520 1522 1523 1526 1528 1531 1533 1536 1538 1540 1543 1545 1546 1548 1549 1550 1551 1552 1552 1553 1553 1553 1554
1501 1503 1503 1504 1504 1504 1503 1503 1503 1506 1510 1510 1511 1509 1507 1506 1508 1509 1510 1511 1514 1516 1518 1520 1522 1525 1527 1530 1532 1535 1537 1539 1541 1543 1545 1546 1547 1547 1548 1548 1548 1548 1549 1549
1503 1504 1504 1503 1503 1502 1504 1503 1504 1506 1508 1508 1509 1505 1498 1498 1502 1503 1505 1507 1508 1511 1514 1516 1519 1521 1524 1527 1529 1531 1533 1536 1538 1539 1541 1542 1543 1543 1544 1544 1544 1544 1544 1544
1502 1502 1503 1503 1502 1503 1503 1505 1506 1506 1506 1508 1508 1506 1493 1495 1496 1495 1498 1501 1504 1507 1509 1512 1515 1517 1520 1523 1525 1528 1530 1532 1534 1535 1537 1538 1538 1539 1539 1539 1539 1539 1539 1539
1502 1504 1503 1502 1504 1504 1506 1506 1508 1508 1508 1511 1502 1504 1492 1488 1488 1488 1492 1495 1499 1502 1505 1508 1510 1513 1515 1518 1521 1523 1526 1528 1530 1531 1532 1533 1534 1534 1534 1534 1534 1534 1534 1533
1502 1502 1503 1503 1504 1507 1506 1505 1510 1512 1511 1503 1500 1500 1489 1483 1485 1487 1489 1492 1495 1498 1500 1502 1505 1507 1510 1513 1516 1519 1522 1524 1526 1527 1528 1529 1529 1530 1530 1530 1530 1529 1529 1528
1499 1500 1501 1502 1500 1501 1502 1501 1501 1501 1499 1497 1504 1497 1485 1484 1486 1488 1489 1490 1491 1493 1495 1496 1499 1502 1505 1509 1512 1515 1518 1520 1522 1523 1524 1525 1526 1526 1526 1526 1525 1525 1524 1524
1493 1498 1501 1501 1502 1501 1502 1502 1502 1500 1498 1497 1493 1490 1485 1483 1484 1485 1486 1487 1487 1488 1490 1491 1494 1497 1501 1505 1509 1512 1515 1517 1519 1520 1521 1521 1522 1522 1522 1522 1521 1521 1520 1520
1493 1497 1499 1502 1502 1503 1501 1500 1504 1505 1501 1494 1488 1487 1481 1479 1480 1481 1483 1484 1484 1485 1486 1488 1490 1493 1497 1502 1506 1509 1512 1514 1515 1517 1517 1518 1518 1518 1518 1518 1517 1517 1516 1516
1494 1496 1501 1501 1500 1499 1502 1503 1501 1499 1496 1492 1488 1482 1478 1479 1481 1482 1482 1482 1482 1483 1484 1485 1488 1491 1495 1499 1503 1506 1509 1511 1512 1513 1514 1514 1514 1514 1514 1514 1513 1513 1513 1512
1494 1493 1496 1499 1500 1499 1498 1496 1497 1499 1500 1495 1487 1483 1479 1481 1482 1482 1481 1481 1481 1481 1483 1485 1487 1490 1494 1498 1501 1504 1506 1508 1509 1510 1511 1511 1511 1511 1511 1510 1510 1510 1509 1509
1493 1494 1494 1496 1501 1501 1498 1496 1495 1496 1497 1494 1491 1483 1480 1481 1481 1481 1481 1480 1481 1481 1482 1484 1486 1489 1493 1496 1499 1502 1504 1505 1506 1507 1507 1507 1508 1508 1507 1507 1507 1507 1506 1506
1493 1491 1488 1484 1482 1489 1494 1495 1495 1497 1496 1490 1485 1479 1477 1478 1479 1479 1480 1479 1480 1480 1481 1483 1485 1488 1491 1494 1497 1499 1501 1502 1503 1504 1504 1504 1504 1504 1504 1504 1504 1504 1503 1503
1492 1490 1488 1487 1488 1488 1488 1489 1491 1493 1489 1487 1478 1478 1475 1476 1477 1477 1478 1478 1478 1478 1479 1480 1482 1485 1488 1491 1493 1495 1497 1498 1499 1500 1501 1501 1501 1500 1501 1501 1501 1501 1501 1501
1491 1489 1488 1488 1488 1488 1487 1485 1486 1486 1485 1483 1480 1476 1474 1475 1475 1475 1475 1475 1474 1475 1475 1477 1479 1482 1484 1487 1489 1492 1493 1495 1496 1497 1497 1497 1497 1497 1497 1498 1498 1498 1498 1498
1490 1488 1487 1484 1487 1487 1482 1477 1478 1479 1478 1478 1476 1471 1472 1472 1472 1471 1471 1471 1470 1470 1472 1473 1475 1477 1480 1483 1485 1488 1489 1491 1492 1493 1493 1493 1493 1494 1494 1495 1495 1496 1496 1496
1489 1487 1486 1483 1486 1485 1474 1475 1475 1475 1474 1474 1473 1471 1471 1470 1468 1467 1466 1466 1466 1466 1467 1469 1471 1473 1476 1479 1481 1484 1485 1486 1488 1489 1489 1490 1490 1490 1491 1492 1493 1494 1494 1495
1488 1486 1485 1483 1478 1473 1472 1473 1474 1474 1470 1471 1471 1470 1469 1467 1465 1462 1461 1461 1461 1462 1463 1464 1466 1469 1472 1474 1477 1479 1481 1482 1483 1484 1485 1486 1487 1487 1488 1490 1491 1492 1492 1493
1487 1487 1485 1482 1479 1475 1470 1472 1473 1474 1468 1469 1469 1468 1467 1466 1462 1460 1459 1458 1458 1458 1459 1461 1463 1465 1468 1470 1473 1475 1476 1478 1479 1481 1482 1483 1483 1484 1486 1487 1488 1489 1490 1491
1484 1484 1483 1480 1477 1470 1471 1473 1474 1472 1469 1470 1469 1467 1466 1465 1463 1461 1458 1457 1456 1456 1457 1459 1460 1463 1465 1467 1469 1471 1472 1474 1476 1477 1478 1479 1480 1481 1483 1484 1486 1487 1488 1489
1480 1478 1477 1476 1476 1475 1473 1473 1473 1471 1471 1469 1468 1466 1465 1463 1461 1459 1458 1457 1456 1456 1457 1458 1459 1461 1462 1464 1466 1467 1469 1471 1472 1473 1475 1476 1477 1478 1480 1481 1483 1484 1486 1487
1481 1480 1477 1476 1474 1474 1473 1473 1473 1471 1470 1468 1467 1465 1463 1461 1460 1459 1458 1457 1457 1456 1457 1457 1458 1459 1460 1461 1463 1464 1466 1467 1468 1470 1471 1473 1474 1475 1477 1478 1480 1481 1483 1484
1482 1483 1481 1477 1473 1473 1473 1472 1471 1469 1468 1466 1465 1463 1462 1461 1459 1459 1458 1457 1457 1456 1456 1457 1457 1458 1458 1459 1460 1462 1463 1464 1465 1466 1468 1469 1470 1472 1473 1475 1477 1478 1479 1480
1483 1482 1479 1476 1474 1472 1470 1470 1469 1467 1465 1464 1462 1461 1460 1459 1458 1457 1457 1456 1456 1456 1456 1456 1456 1456 1457 1457 1458 1459 1459 1460 1462 1463 1464 1465 1467 1468 1470 1472 1473 1475 1476 1478
1482 1481 1479 1474 1475 1474 1471 1469 1467 1465 1463 1462 1460 1459 1458 1457 1456 1456 1455 1455 1455 1455 1454 1454 1454 1454 1454 1455 1455 1455 1456 1457 1458 1459 1460 1462 1463 1465 1466 1468 1470 1471 1473 1474